Location: Helstorf
(52.5868°N, 9.5862°E)
Time: 15:28:38
(UTC+00:00)

Cosmos 220 Rocket - Pass Details

Date: 15 May 2026
Orbit: 537 x 573 km, 74.0° (Epoch: 9 June)

Event Time Altitude Azimuth Distance (km) Brightness Sun altitude
Exits shadow 20:32:15 - 191° (SSW) 2,514 6.8 -9.9°
Reaches altitude 10° 20:33:59 10° 188° (S) 1,816 6.1 -10.0°
Maximum altitude 20:37:56 56° 110° (ESE) 664 3.9 -10.4°
Drops below altitude 10° 20:41:57 10° 32° (NNE) 1,853 6.8 -10.8°
Sets 20:44:12 0° 29° (NNE) 2,759 7.7 -11.0°
